Retour au catalogue

CZ-4C DEB

ActifLEO
NORAD 44618·DEBRIS·🇨🇳 China

Lancé Apr 10, 2018 depuis Taiyuan Satellite Launch Center

Loading…

Prochains Passages (prochaines 24 heures)

TLE

FraisSource: Space-Track

Époque: Sep 14, 2026, 11:40 UTC

1 44618U 18034K   26257.48658979 -.00000049  00000-0  57641-4 0  9998
2 44618  63.4626 286.3475 0264763 345.7320  13.6327 13.42053316388839

Suivez CZ-4C DEB en temps réel avec AllMySat

Download on the App Store